Regional Weather Roundup
Issued by NWS

Home | Current Version | Previous Version | Text Only | Print | Product List | Glossary Off
Versions: 1 2 3 4 5 6 7 8 9 10 11 12 13 14 15 16 17 18 19 20 21 22 23 24 25 26 27 28 29 30 31 32 33 34 35 36 37 38 39 40 41 42 43 44 45 46 47 48 49 50

000
ASUS43 KIND 010109
RWRIN

WEATHER ROUNDUP FOR INDIANA
NATIONAL WEATHER SERVICE INDIANAPOLIS IN
900 PM EDT THU JUL 31 2014

NOTE: "FAIR" INDICATES FEW OR NO CLOUDS BELOW 12,000 FEET WITH NO
SIGNIFICANT WEATHER AND/OR OBSTRUCTIONS TO VISIBILITY.

* - STATION DOES NOT REPORT WEATHER SUCH AS PRECIPITATION OR FOG.

+ - STATION NOT QUALITY CONTROLLED BY THE NATIONAL WEATHER SERVICE.
    USE DATA WITH CAUTION...ESPECIALLY DEWPOINT AND RELATIVE
    HUMIDITY OBSERVATIONS.

INZ001>003-010>013-019-020-010200-
NORTHWEST INDIANA

CITY           SKY/WX    TMP DP  RH WIND       PRES   REMARKS
KNOX *+        PTCLDY    68  62  78 CALM      30.04S
LA PORTE +     PTCLDY    66  64  91 CALM      30.05S
MICHIGAN CITY+ CLEAR     70  61  73 S3        30.04S
MONTICELLO +   CLEAR     71  65  82 CALM      30.05S
RENSSELAER +   PTCLDY    70  66  88 SW3       30.05F
VALPARAISO     PTCLDY    74  62  66 SW7       30.05S

$$

LMZ046-743>745-010200-
SOUTHERN LAKE MICHIGAN

STATION/POSITION TIME  TEMP WIND        PRES
                       AIR  DIR/SP/G
                 (UTC) (F)  (DEG/KT/KT) (MB)
MICHIGAN CITY    0100   75  200/  5/  6   N/A

$$

INZ004-005-014>016-021>024-010200-
NORTH CENTRAL INDIANA

CITY           SKY/WX    TMP DP  RH WIND       PRES   REMARKS
ELKHART        PTCLDY    72  55  56 CALM      30.05S
GOSHEN         CLOUDY    72  61  68 S6        30.05S
LOGANSPORT +   CLEAR     70  63  78 S3        30.07S
PERU/GRISSOM   CLEAR     70  66  85 SW6       30.06S
ROCHESTER +    PTCLDY    73  61  64 CALM      30.07S
SOUTH BEND     MOCLDY    73  60  63 SW6       30.05R
WARSAW +       CLOUDY    70  59  68 CALM      30.06S

$$

INZ006>009-017-018-025>027-010200-
NORTHEAST INDIANA

CITY           SKY/WX    TMP DP  RH WIND       PRES   REMARKS
ANGOLA *+      MOCLDY    72  63  73 SW8       30.06R
AUBURN +       CLOUDY    70  59  68 CALM      30.07S
FORT WAYNE     PTCLDY    72  61  68 N3        30.07R
HUNTINGTON +   PTCLDY    71  61  71 CALM      30.06S

$$

INZ028-029-035-036-043>045-051>053-010200-
WEST CENTRAL INDIANA

CITY           SKY/WX    TMP DP  RH WIND       PRES   REMARKS
GREENCASTLE +  CLEAR     72  63  73 CALM      30.08S
LAFAYETTE      CLEAR     71  65  81 CALM      30.05F
TERRE HAUTE    MOCLDY    74  64  71 CALM      30.06S

$$

INZ030>032-037>040-046>048-054>057-064-065-010200-
CENTRAL INDIANA

CITY           SKY/WX    TMP DP  RH WIND       PRES   REMARKS
CP ATTERBURY + CLEAR     70  63  78 CALM      30.08S
COLUMBUS       CLEAR     72  66  83 CALM      30.07S
INDIANAPOLIS   PTCLDY    74  60  61 NW5       30.07S
-EAGLE CREEK   CLEAR     74  61  63 CALM      30.07S
KOKOMO *+      CLEAR     72  61  68 CALM      30.07S
MARION +       CLEAR     68  62  80 CALM      30.08S
MT COMFORT *+  CLEAR     70  66  88 CALM      30.08S
SHELBYVILLE    CLEAR     73  64  73 CALM      30.07S
ZIONSVILLE +   CLEAR     71  61  70 CALM      30.08S

$$

INZ033-034-041-042-049-050-058-059-010200-
EAST CENTRAL INDIANA

CITY           SKY/WX    TMP DP  RH WIND       PRES   REMARKS
MUNCIE         CLEAR     73  58  59 W3        30.08R

$$

INZ060-061-067>069-081>083-085>088-010200-
SOUTHWEST INDIANA

CITY           SKY/WX    TMP DP  RH WIND       PRES   REMARKS
EVANSVILLE     PTCLDY    78  61  55 CALM      30.05F
WASHINGTON +   PTCLDY    70  67  90 CALM      30.05S

$$

INZ062-063-066-070>080-084-089>092-010200-
SOUTH CENTRAL AND SOUTHEAST INDIANA

CITY           SKY/WX    TMP DP  RH WIND       PRES   REMARKS
BLOOMINGTON    CLEAR     70  65  84 CALM      30.07S
NORTH VERNON + MOCLDY    72  64  78 CALM      30.08S

$$



USA.gov is the U.S. government's official web portal to all federal, state and local government web resources and services.